Location: Unspecified
(40.5992°S, 0.0000°E)
Time: 23:30:24
(UTC+00:00)

USA 267 - Pass Details

Date: 29 December 1899
Orbit: 1101 x 1107 km, 123.0° (Epoch: 10 January)

Event Time Altitude Azimuth Distance (km) Brightness Sun altitude
Rises 23:34:09 0° 107° (ESE) 3,937 6.3 -26.1°
Reaches altitude 10° 23:37:10 10° 120° (ESE) 2,980 5.8 -26.2°
Maximum altitude 23:42:04 23° 169° (SSE) 2,164 5.5 -26.2°
Drops below altitude 10° 23:47:00 10° 217° (SW) 2,990 6.2 -26.2°
Sets 23:50:02 0° 230° (SW) 3,953 6.7 -26.2°
